Skip Page Navigation
NASA JPL Caltech
NASA Logo - Jet Propulsion Laboratory + View the NASA Portal
+ Near-Earth Object (NEO) Program
Search JPL
JPL Home Earth Solar System Stars & Galaxies Technology
JPL Solar System Dynamics
BODIES ORBITS EPHEMERIDES TOOLS PHYSICAL DATA DISCOVERY FAQ SITE MAP
JPL Small-Body Database Browser
Search: [ help ]  
(2004 UB)
Classification: Apollo [NEO]          SPK-ID: 3257080
Ephemeris | Orbit Diagram | Orbital Elements | Physical Parameters | Close-Approach Data ]

[ hide orbit diagram ]
Orbit Diagram
Note: Make sure you have Java enabled on your browser to see the applet. This applet is provided as a 3D orbit visualization tool. The applet was implemented using 2-body methods, and hence should not be used for determining accurate long-term trajectories (over several years or decades) or planetary encounter circumstances. For accurate long-term ephemerides, please instead use our Horizons system.
Orbit Viewer

Additional Notes: the orbits shown in the applet are color coded. The planets are white lines, and the asteroid/comet is a blue line. The bright white line indicates the portion of the orbit that is above the ecliptic plane, and the darker portion is below the ecliptic plane. Likewise for the asteroid/comet orbit, the light blue indicates the portion above the ecliptic plane, and the dark blue the portion below the ecliptic plane.

Orbit Viewer applet originally written and kindly provided by Osamu Ajiki (AstroArts), and further modified by Ron Baalke (JPL).


Orbital Elements at Epoch 2456400.5 (2013-Apr-18.0) TDB
Reference: JPL 17 (heliocentric ecliptic J2000)
 Element Value Uncertainty (1-sigma)   Units 
e .6181779441985482 3.224e-06  
a 1.366993068599602 1.7482e-08 AU
q .521948103719035 4.413e-06 AU
i 6.379959035997268 0.00012773 deg
node 242.9817786702617 0.00031672 deg
peri 36.7371249881657 0.0002938 deg
M 151.4697073887299 2.7334e-05 deg
tp 2456154.875784154627
(2012-Aug-15.37578415)
4.301e-05 JED
period 583.7782301737877
1.60
1.1198e-05
3.066e-08
d
yr
n .6166725331515529 1.1829e-08 deg/d
Q 2.212038033480169 2.8288e-08 AU
  Orbit Determination Parameters
   # obs. used (total)      93  
   data-arc span      2944 days (8.06 yr)  
   first obs. used      2004-10-16  
   last obs. used      2012-11-07  
   planetary ephem.      DE405  
   SB-pert. ephem.      SB405-CPV-2  
   condition code      0  
   fit RMS      .50317  
   data source      ORB  
   producer      Otto Matic  
   solution date      2012-Nov-09 00:55:17  

Additional Information
 Earth MOID = .0694642 AU 
 T_jup = 4.607 
[ show covariance matrix ]

Ephemeris | Orbit Diagram | Orbital Elements | Physical Parameters | Close-Approach Data ]

Physical Parameter Table
Parameter Symbol Value Units Sigma Reference Notes
absolute magnitude H 20.337 mag .55064 17 autocmod 2.5b

[ show close-approach data ]
Ephemeris | Orbit Diagram | Orbital Elements | Physical Parameters | Close-Approach Data ]
ABOUT SSD CREDITS/AWARDS PRIVACY/COPYRIGHT GLOSSARY LINKS
FirstGov 2013-May-18 08:40 UT
(server date/time)  
NASA Home Page
Site Manager:   Donald K. Yeomans
Webmaster  Alan B. Chamberlin